星链-4269 (STARLINK-4269 )

导读

STARLINK-4269是美国SpaceX公司星链(Starlink)星座的卫星,于2022年7月7日发射。星链旨在构建全球低轨宽带互联网星座,该卫星属于量产型低轨通信卫星,采用平板设计,搭载氪工质霍尔推进器,配备Ku/Ka波段通信载荷,运行于近地轨道,可提供高速低延迟互联网服务,寿命末期会主动离轨再入大气层烧毁,减少太空垃圾影响。

基本信息
目录编号:
52992
目录名称:
STARLINK-4269
国际标识:
2022-076G
轨道中心:
EARTH
卫星名称:
星链-4269
卫星全名:
星链-4269 (STARLINK-4269 )
卫星状态:
在轨 (已飞行1520 天)
发射日期:
2022-07-07 UTC
国别 :
美国 (US)
星等 :
--
轨道信息
数据来源 国际轨道数据
星历时间: 2026-09-04T04:22:10+0800
20小时前
查看轨道信息
半长轴: 6848.849km
偏心率: 0.0001048
轨道倾角: 53.162°
近地点辐角 77.579°
升交点赤经 15.290°
平近点角 282.533°
近地点: 469.994km
远地点: 471.43km
周期: 94.013分钟
每日圈数: 15.317097
详细信息
固有亮度:
5
最大亮度:
2.5
卫星平台:
Starlink v1.5
覆盖范围:
全球
运营商:
太空探索技术公司
运营商所在国:
美国
制造商(研发单位):
太空探索技术公司
制造商所在国:
美国
使用方式:
暂无
卫星简介
星链(Starlink)计划是由太空探索技术公司(SpaceX)提出的一个巨型低轨卫星互联网星座项目,计划在2019年至2024年间在太空搭建由约1.2万颗卫星组成的“星链”网络,其中1584颗将部署在地球上空550千米处的近地轨道,并从2020年开始工作。该卫星仍在工作。
2D轨道图
3D轨道图
轨道高度分析图
轨道倾角分析图
轨道综合分析图
查看轨道综合分析图
交会数据列表
事件ID 空间交会对象 最接近时刻(TCA) 交会距离 交会风险概率(CRP) 交会风险指数(CRI) 操作
CDM_260905-145204-649605-299221
ICEYE-X7 (46496)
2026-09-05T
14:52:52+0000
1.996 km
极远距离
2.814364E-6 低风险 0.44
CDM_260901-183705-299206-822221
2026-09-01T
18:37:58+0000
2.728 km
极远距离
1.312176E-6 低风险 0.37
CDM_260904-113805-299206-539621
2026-09-04T
11:38:29+0000
2.876 km
极远距离
1.249681E-6 低风险 0.37